Weather History for EGBJ - November, 2013

Change the Weather History Date:

Monday, November 25, 2013

  Actual Average Record
Temperature  
Mean Temperature 40 °F -  
Max Temperature 42 °F 45 °F - (-1)
Min Temperature 37 °F 40 °F - (-1)
Degree Days  
Heating Degree Days 26    
Moisture  
Dew Point 35 °F    
Average Humidity 79    
Maximum Humidity 93    
Minimum Humidity 70    
Precipitation  
Precipitation 0.00 in - - ()
Sea Level Pressure  
Sea Level Pressure 30.70 in    
Wind  
Wind Speed 1 mph ()    
Max Wind Speed 5 mph    
Max Gust Speed -    
Visibility 6.2 miles    
Events      
Averages and records for this station are not official NWS values.
T = Trace of Precipitation, MM = Missing Value Source: Averaged Metar Reports

Daily Weather History Graph

Daily Weather History Graph

Search for Another Location

Airport or City:

Trip Planner

Search our weather history database for the weather conditions in past years. The results will help you decide how hot, cold, wet, or windy it might be!

Date:

Astronomy

Nov. 25, 2013 Rise Set
Actual Time 7:44 AM GMT 4:06 PM GMT
Civil Twilight 7:06 AM GMT 4:44 PM GMT
Nautical Twilight 6:23 AM GMT 5:26 PM GMT
Astronomical Twilight 5:43 AM GMT 6:07 PM GMT
Moon 11:46 PM GMT (11/25) 12:27 PM GMT (11/25)
Length of Visible Light 9h 38m
Length of Day
8h 21m
Waning Gibbous, 53% of the Moon is Illuminated
Nov 25
Waning Gibbous
Nov 25
Last Quarter
Dec 3
New
Dec 9
First Quarter
Dec 17
Full

Hourly Weather History & Observations

Time (GMT) Temp. Windchill Dew Point Humidity Pressure Visibility Wind Dir Wind Speed Gust Speed Precip Events Conditions
6:50 AM 37.4 °F - 35.6 °F 93% 30.66 in 6.2 mi Calm Calm - N/A   Mostly Cloudy
7:20 AM 37.4 °F - 33.8 °F 87% 30.66 in 6.2 mi Calm Calm - N/A   Mostly Cloudy
7:50 AM 37.4 °F - 35.6 °F 93% 30.69 in 6.2 mi Calm Calm - N/A   Mostly Cloudy
8:20 AM 37.4 °F - 35.6 °F 93% 30.69 in 6.2 mi Calm Calm - N/A   Mostly Cloudy
8:50 AM 39.2 °F - 35.6 °F 87% 30.69 in 6.2 mi Calm Calm - N/A   Mostly Cloudy
9:20 AM 39.2 °F - 35.6 °F 87% 30.71 in 6.2 mi Calm Calm - N/A   Mostly Cloudy
9:50 AM 39.2 °F - 35.6 °F 87% 30.71 in 6.2 mi Calm Calm - N/A   Mostly Cloudy
10:20 AM 41.0 °F - 35.6 °F 81% 30.71 in 6.2 mi North 2.3 mph - N/A   Mostly Cloudy
10:50 AM 41.0 °F 39.0 °F 35.6 °F 81% 30.71 in 6.2 mi North 3.5 mph - N/A   Mostly Cloudy
11:20 AM 41.0 °F 39.0 °F 35.6 °F 81% 30.71 in 6.2 mi North 3.5 mph - N/A   Mostly Cloudy
11:50 AM 42.8 °F - 35.6 °F 76% 30.69 in 6.2 mi NNW 2.3 mph - N/A   Scattered Clouds
12:50 PM 42.8 °F - 35.6 °F 76% 30.69 in 6.2 mi North 2.3 mph - N/A   Scattered Clouds
1:20 PM 42.8 °F - 35.6 °F 76% 30.69 in 6.2 mi NNW 2.3 mph - N/A   Mostly Cloudy
1:50 PM 42.8 °F - 35.6 °F 76% 30.69 in 6.2 mi NNW 2.3 mph - N/A   Mostly Cloudy
2:20 PM 42.8 °F 41.1 °F 33.8 °F 70% 30.69 in 6.2 mi North 3.5 mph - N/A   Mostly Cloudy
2:50 PM 42.8 °F - 33.8 °F 70% 30.69 in 6.2 mi Calm Calm - N/A   Mostly Cloudy
3:20 PM 42.8 °F - 35.6 °F 76% 30.69 in 6.2 mi Calm Calm - N/A   Mostly Cloudy
3:50 PM 42.8 °F - 33.8 °F 70% 30.69 in 6.2 mi Calm Calm - N/A   Mostly Cloudy
4:20 PM 42.8 °F - 33.8 °F 70% 30.69 in 6.2 mi Calm Calm - N/A   Mostly Cloudy
4:50 PM 42.8 °F - 33.8 °F 70% 30.69 in 6.2 mi Calm Calm - N/A   Mostly Cloudy
5:20 PM 41.0 °F - 33.8 °F 76% 30.71 in 6.2 mi Calm Calm - N/A   Mostly Cloudy
5:50 PM 41.0 °F - 33.8 °F 76% 30.71 in 6.2 mi NNW 2.3 mph - N/A   Mostly Cloudy
6:20 PM 41.0 °F 39.0 °F 33.8 °F 76% 30.71 in 6.2 mi NNW 3.5 mph - N/A   Mostly Cloudy
6:50 PM 39.2 °F 35.9 °F 32.0 °F 75% 30.71 in 6.2 mi NNW 4.6 mph - N/A   Mostly Cloudy
7:20 PM 39.2 °F - 32.0 °F 75% 30.71 in 6.2 mi Calm Calm - N/A   Scattered Clouds